| time (UTC) | temp C | wind direction | speed KPH | gust KPH | rain 1hr cm | rain 24hr cm | rain mn cm | humidity % | barometer mb |
| 20260902211538 | 33 | 214 | 4.8 | 17.7 | 0.00 | 0.00 | 0.00 | 60 | 1017.0 |
| 20260902210037 | 33 | 215 | 6.4 | 16.1 | 0.00 | 0.00 | 0.00 | 61 | 1017.2 |
| 20260902204548 | 33 | 235 | 4.8 | 16.1 | 0.00 | 0.00 | 0.00 | 61 | 1017.1 |
| 20260902203035 | 33 | 211 | 6.4 | 19.3 | 0.00 | 0.00 | 0.00 | 61 | 1017.3 |
| 20260902201541 | 33 | 238 | 8.0 | 14.5 | 0.00 | 0.00 | 0.00 | 58 | 1017.3 |
| 20260902200038 | 33 | 242 | 4.8 | 16.1 | 0.00 | 0.00 | 0.00 | 60 | 1017.5 |
| 20260902194551 | 33 | 240 | 1.6 | 19.3 | 0.00 | 0.00 | 0.00 | 60 | 1017.7 |
| 20260902193042 | 33 | 0 | 3.2 | 20.9 | 0.00 | 0.00 | 0.00 | 60 | 1017.7 |
| 20260902191549 | 33 | 296 | 3.2 | 16.1 | 0.00 | 0.00 | 0.00 | 59 | 1017.8 |
| 20260902190039 | 33 | 225 | 3.2 | 16.1 | 0.00 | 0.00 | 0.00 | 60 | 1018.0 |
| 20260902184534 | 33 | 214 | 3.2 | 17.7 | 0.00 | 0.00 | 0.00 | 63 | 1018.1 |
| 20260902183041 | 33 | 239 | 4.8 | 16.1 | 0.00 | 0.00 | 0.00 | 60 | 1018.1 |
| 20260902181536 | 33 | 205 | 4.8 | 12.9 | 0.00 | 0.00 | 0.00 | 63 | 1018.4 |
| 20260902180036 | 33 | 236 | 6.4 | 16.1 | 0.00 | 0.00 | 0.00 | 61 | 1018.4 |
| 20260902174538 | 33 | 0 | 4.8 | 12.9 | 0.00 | 0.00 | 0.00 | 61 | 1018.5 |
| 20260902173051 | 33 | 0 | 3.2 | 16.1 | 0.00 | 0.00 | 0.00 | 60 | 1018.8 |
| 20260902171537 | 33 | 206 | 8.0 | 17.7 | 0.00 | 0.00 | 0.00 | 59 | 1018.9 |
| 20260902170043 | 33 | 198 | 4.8 | 14.5 | 0.00 | 0.00 | 0.00 | 64 | 1018.8 |
| 20260902164545 | 32 | 241 | 4.8 | 19.3 | 0.00 | 0.00 | 0.00 | 64 | 1018.9 |
| 20260902163036 | 33 | 0 | 0.0 | 17.7 | 0.00 | 0.00 | 0.00 | 66 | 1019.0 |
| 20260902161538 | 32 | 252 | 6.4 | 19.3 | 0.00 | 0.00 | 0.00 | 65 | 1019.1 |
| 20260902160045 | 32 | 250 | 1.6 | 12.9 | 0.00 | 0.00 | 0.00 | 66 | 1019.1 |
| 20260902154546 | 32 | 240 | 3.2 | 14.5 | 0.00 | 0.00 | 0.00 | 65 | 1019.2 |
| 20260902153035 | 31 | 214 | 3.2 | 11.3 | 0.00 | 0.00 | 0.00 | 66 | 1019.3 |
| 20260902151538 | 31 | 269 | 1.6 | 12.9 | 0.00 | 0.00 | 0.00 | 70 | 1019.4 |
| 20260902150035 | 31 | 0 | 0.0 | 8.0 | 0.00 | 0.00 | 0.00 | 72 | 1019.3 |
| 20260902144537 | 30 | 196 | 4.8 | 8.0 | 0.00 | 0.00 | 0.00 | 73 | 1019.4 |
| 20260902143038 | 29 | 0 | 0.0 | 11.3 | 0.00 | 0.00 | 0.00 | 75 | 1019.2 |
| 20260902141538 | 29 | 209 | 0.0 | 3.2 | 0.00 | 0.00 | 0.00 | 76 | 1019.3 |
| 20260902140039 | 28 | 211 | 0.0 | 6.4 | 0.00 | 0.00 | 0.00 | 79 | 1019.4 |
| 20260902134539 | 27 | 205 | 0.0 | 4.8 | 0.00 | 0.00 | 0.00 | 83 | 1019.5 |
| 20260902133037 | 26 | 0 | 0.0 | 3.2 | 0.00 | 0.00 | 0.00 | 85 | 1019.4 |
| 20260902131547 | 25 | 207 | 0.0 | 3.2 | 0.00 | 0.00 | 0.00 | 88 | 1019.4 |
| 20260902130049 | 24 | 0 | 0.0 | 4.8 | 0.00 | 0.00 | 0.00 | 88 | 1019.4 |
| 20260902124537 | 23 | 0 | 0.0 | 3.2 | 0.00 | 0.00 | 0.00 | 91 | 1019.3 |
| 20260902123038 | 23 | 0 | 0.0 | 1.6 | 0.00 | 0.00 | 0.00 | 92 | 1019.2 |
| 20260902121541 | 22 | 0 | 0.0 | 1.6 | 0.00 | 0.00 | 0.00 | 94 | 1019.1 |
| 20260902120037 | 22 | 0 | 0.0 | 1.6 | 0.00 | 0.00 | 0.00 | 95 | 1018.8 |
| 20260902114536 | 21 | 0 | 0.0 | 0.0 | 0.00 | 0.00 | 0.00 | 95 | 1018.7 |
| 20260902113035 | 21 | 0 | 0.0 | 0.0 | 0.00 | 0.00 | 0.00 | 95 | 1018.6 |
| 20260902111540 | 21 | 0 | 0.0 | 0.0 | 0.00 | 0.00 | 0.00 | 95 | 1018.6 |
| 20260902110043 | 21 | 0 | 0.0 | 1.6 | 0.00 | 0.00 | 0.00 | 94 | 1018.4 |
| 20260902104540 | 21 | 0 | 0.0 | 0.0 | 0.00 | 0.00 | 0.00 | 94 | 1018.4 |
| 20260902103039 | 21 | 0 | 0.0 | 0.0 | 0.00 | 0.00 | 0.00 | 94 | 1018.4 |
| 20260902101536 | 21 | 0 | 0.0 | 0.0 | 0.00 | 0.00 | 0.00 | 94 | 1018.4 |
| 20260902100035 | 21 | 0 | 0.0 | 1.6 | 0.00 | 0.00 | 0.00 | 94 | 1018.4 |
| 20260902094535 | 21 | 0 | 0.0 | 0.0 | 0.00 | 0.00 | 0.00 | 94 | 1018.3 |
| 20260902093041 | 21 | 0 | 0.0 | 0.0 | 0.00 | 0.00 | 0.00 | 94 | 1018.3 |
| 20260902091535 | 21 | 0 | 0.0 | 1.6 | 0.00 | 0.00 | 0.00 | 94 | 1018.2 |
| 20260902090035 | 21 | 0 | 0.0 | 1.6 | 0.00 | 0.00 | 0.00 | 94 | 1018.1 |
| 20260902084536 | 21 | 0 | 0.0 | 1.6 | 0.00 | 0.00 | 0.00 | 94 | 1018.1 |
| 20260902083038 | 22 | 0 | 0.0 | 1.6 | 0.00 | 0.00 | 0.00 | 93 | 1017.8 |
| 20260902081543 | 21 | 0 | 0.0 | 0.0 | 0.00 | 0.00 | 0.00 | 93 | 1017.7 |
| 20260902080047 | 22 | 0 | 0.0 | 1.6 | 0.00 | 0.00 | 0.00 | 93 | 1017.6 |
| 20260902074537 | 22 | 0 | 0.0 | 0.0 | 0.00 | 0.00 | 0.00 | 93 | 1017.5 |
| 20260902073039 | 22 | 0 | 0.0 | 0.0 | 0.00 | 0.00 | 0.00 | 93 | 1017.6 |
| 20260902071540 | 22 | 0 | 0.0 | 0.0 | 0.00 | 0.00 | 0.00 | 92 | 1017.7 |
| 20260902070038 | 22 | 0 | 0.0 | 0.0 | 0.00 | 0.00 | 0.00 | 92 | 1017.6 |
| 20260902064535 | 22 | 0 | 0.0 | 0.0 | 0.00 | 0.00 | 0.00 | 92 | 1017.6 |
| 20260902063036 | 22 | 0 | 0.0 | 0.0 | 0.00 | 0.00 | 0.00 | 92 | 1017.8 |
| 20260902061536 | 22 | 0 | 0.0 | 0.0 | 0.00 | 0.00 | 0.00 | 92 | 1017.7 |
| 20260902060037 | 22 | 0 | 0.0 | 0.0 | 0.00 | 0.00 | 0.00 | 91 | 1017.7 |
| 20260902054538 | 22 | 0 | 0.0 | 0.0 | 0.00 | 0.00 | 0.00 | 91 | 1017.7 |
| 20260902053038 | 22 | 0 | 0.0 | 0.0 | 0.00 | 0.00 | 0.00 | 91 | 1017.7 |
| 20260902051536 | 23 | 0 | 0.0 | 0.0 | 0.00 | 0.00 | 0.00 | 91 | 1017.7 |
| 20260902050035 | 23 | 0 | 0.0 | 0.0 | 0.00 | 0.00 | 0.00 | 91 | 1017.7 |
| 20260902044539 | 23 | 0 | 0.0 | 0.0 | 0.00 | 0.00 | 0.00 | 91 | 1017.7 |
| 20260902043042 | 23 | 0 | 0.0 | 0.0 | 0.00 | 0.00 | 0.00 | 90 | 1017.8 |
| 20260902041535 | 23 | 0 | 0.0 | 1.6 | 0.00 | 0.00 | 0.00 | 90 | 1017.8 |
| 20260902040037 | 23 | 0 | 0.0 | 1.6 | 0.00 | 0.00 | 0.00 | 90 | 1017.7 |
| 20260902034541 | 23 | 0 | 0.0 | 1.6 | 0.00 | 0.00 | 0.00 | 90 | 1017.8 |
| 20260902033041 | 23 | 0 | 0.0 | 1.6 | 0.00 | 0.00 | 0.00 | 90 | 1017.8 |
| 20260902031538 | 23 | 0 | 0.0 | 0.0 | 0.00 | 0.00 | 0.00 | 89 | 1017.7 |
| 20260902030042 | 24 | 0 | 0.0 | 0.0 | 0.00 | 0.00 | 0.00 | 88 | 1017.7 |
| 20260902024534 | 24 | 0 | 0.0 | 1.6 | 0.00 | 0.00 | 0.00 | 89 | 1017.7 |
| 20260902023042 | 24 | 0 | 0.0 | 3.2 | 0.00 | 0.00 | 0.00 | 88 | 1017.7 |
| 20260902021546 | 25 | 0 | 0.0 | 4.8 | 0.00 | 0.00 | 0.00 | 87 | 1017.6 |
| 20260902020036 | 25 | 0 | 0.0 | 1.6 | 0.00 | 0.00 | 0.00 | 86 | 1017.7 |
| 20260902014542 | 25 | 0 | 0.0 | 1.6 | 0.00 | 0.00 | 0.00 | 86 | 1017.7 |
| 20260902013038 | 25 | 0 | 0.0 | 1.6 | 0.00 | 0.00 | 0.00 | 85 | 1017.7 |
| 20260902011538 | 25 | 0 | 0.0 | 3.2 | 0.00 | 0.00 | 0.00 | 85 | 1017.6 |
| 20260902010035 | 26 | 0 | 0.0 | 1.6 | 0.00 | 0.00 | 0.00 | 83 | 1017.4 |
| 20260902004540 | 26 | 0 | 0.0 | 1.6 | 0.00 | 0.00 | 0.00 | 82 | 1017.3 |
| 20260902003042 | 26 | 208 | 0.0 | 3.2 | 0.00 | 0.00 | 0.00 | 81 | 1017.3 |
| 20260902001534 | 27 | 0 | 0.0 | 1.6 | 0.00 | 0.00 | 0.00 | 82 | 1017.4 |
| 20260902000037 | 27 | 0 | 0.0 | 1.6 | 0.00 | 0.00 | 0.00 | 79 | 1017.5 |
| 20260901234537 | 28 | 0 | 0.0 | 0.0 | 0.00 | 0.00 | 0.00 | 79 | 1017.4 |
| 20260901233037 | 29 | 0 | 0.0 | 3.2 | 0.00 | 0.00 | 0.00 | 74 | 1017.5 |
| 20260901231537 | 30 | 0 | 0.0 | 3.2 | 0.00 | 0.00 | 0.00 | 72 | 1017.5 |
| 20260901230037 | 31 | 0 | 0.0 | 3.2 | 0.00 | 0.00 | 0.00 | 67 | 1017.5 |
| 20260901224536 | 32 | 208 | 3.2 | 9.7 | 0.00 | 0.00 | 0.00 | 62 | 1017.5 |
| 20260901223038 | 32 | 231 | 3.2 | 12.9 | 0.00 | 0.00 | 0.00 | 61 | 1017.5 |
| 20260901221536 | 32 | 207 | 3.2 | 11.3 | 0.00 | 0.00 | 0.00 | 61 | 1017.5 |
| 20260901220057 | 32 | 205 | 1.6 | 11.3 | 0.00 | 0.00 | 0.00 | 60 | 1017.4 |
| 20260901214535 | 33 | 207 | 4.8 | 11.3 | 0.00 | 0.00 | 0.00 | 59 | 1017.4 |
| 20260901213102 | 33 | 234 | 3.2 | 11.3 | 0.00 | 0.00 | 0.00 | 60 | 1017.4 |